Home > Weather > Leesburg > Past weeks

Flag for USA Weather for the Past 2 Weeks in Leesburg, Virginia, USA

Now
72 °F

Broken clouds.


Feels Like: 75 °F
Forecast: 57 / 70 °F
Wind: 8 mph from Northeast

Location: Leesburg / Godfrey

Current Time: May 3, 2016 at 2:33:22 PM

Latest Report: May 3, 2016 at 2:15 PM


Visibility: 10 mi

Pressure: 29.78 "Hg

Humidity: 69%

Dew Point: 61 °F

Location of LeesburgLocation

Historic Weather in Leesburg — Graph

°F

Leesburg Temperature Yesterday

Maximum temperature yesterday: 82 °F (at 5:15 PM)
Minimum temperature yesterday: 55 °F (at 12:15 AM)
Average temperature yesterday: 65 °F

High & Low Weather Summary for the Past Weeks

 TemperatureHumidityPressure
High86 °F (Apr 26, 3:55 PM)100% (Apr 23, 12:15 AM)30.34 "Hg (Apr 23, 12:15 AM)
Low43 °F (Apr 20, 6:35 AM)22% (Apr 20, 3:55 PM)29.71 "Hg (Apr 26, 3:55 PM)
Average62 °F72%30.01 "Hg
* Reported Apr 18 1:15 PM — May 3 1:15 PM, Leesburg, Weather by CustomWeather, © 2016

Note: Actual official high and low records may vary slightly from our data, if they occured in-between our weather recording intervals... More about our weather records

Advertising

Leesburg Weather History for the Previous 24 Hours

Scroll right to see more
 ConditionsComfort  
Time TempWeatherWind HumidityBarometerVisibility
1:15 PM
Tue, May 3
68 °FCloudy.6 mph78%29.80 "Hg10 mi
12:55 PM68 °FMostly cloudy.6 mph78%29.81 "Hg10 mi
12:35 PM68 °FMore clouds than sun.No wind78%29.82 "Hg10 mi
12:15 PM68 °FMostly cloudy.5 mph78%29.82 "Hg10 mi
11:55 AM66 °FPartly sunny.5 mph83%29.82 "Hg10 mi
11:35 AM66 °FScattered clouds.7 mph83%29.82 "Hg10 mi
11:15 AM64 °FOvercast.9 mph88%29.81 "Hg10 mi
10:55 AM64 °FBroken clouds.6 mph88%29.83 "Hg10 mi
10:35 AM64 °FBroken clouds.6 mph88%29.82 "Hg10 mi
10:15 AM64 °FMore clouds than sun.No wind94%29.83 "Hg10 mi
9:55 AM63 °FMore clouds than sun.9 mph100%29.83 "Hg10 mi
9:35 AM63 °FMore clouds than sun.5 mph94%29.81 "Hg10 mi
9:15 AM63 °FOvercast.3 mph100%29.82 "Hg10 mi
8:55 AM63 °FMostly cloudy.5 mph100%29.82 "Hg7 mi
8:15 AM63 °FMostly cloudy.3 mph100%29.82 "Hg10 mi
7:55 AM63 °FMostly cloudy.3 mph100%29.82 "Hg10 mi
7:15 AM63 °FMore clouds than sun.3 mph100%29.80 "Hg7 mi
6:55 AM63 °FOvercast.No wind100%29.80 "Hg7 mi
6:15 AM63 °FLight rain. Overcast.No wind100%29.80 "Hg4 mi
5:55 AM63 °FLight rain. Mostly cloudy.No wind100%29.80 "Hg3 mi
5:15 AM63 °FLight rain. Low clouds.No wind100%29.81 "Hg3 mi
4:55 AM63 °FFog.No wind100%29.81 "Hg3 mi
4:15 AM63 °FDrizzle. Low clouds.No wind100%29.82 "Hg4 mi
3:55 AM63 °FFog.No wind100%29.81 "Hg5 mi
3:15 AM63 °FLight rain. Mostly cloudy.No wind100%29.83 "Hg4 mi
2:55 AM63 °FFog.No wind100%29.83 "Hg5 mi
2:35 AM63 °FDrizzle. Low clouds.No wind100%29.84 "Hg7 mi
2:15 AM63 °FLow clouds.No wind100%29.84 "Hg10 mi
1:35 AM63 °FLow clouds.5 mph100%29.84 "Hg10 mi
12:55 AM64 °FFog.3 mph100%29.84 "Hg4 mi
12:15 AM64 °FPassing clouds.No wind100%29.86 "Hg10 mi
11:55 PM
Mon, May 2
64 °FPassing clouds.No wind100%29.86 "Hg10 mi
11:15 PM64 °FMostly cloudy.No wind100%29.87 "Hg10 mi
10:55 PM64 °FOvercast.6 mph100%29.87 "Hg10 mi
10:35 PM64 °FLight rain. Mostly cloudy.6 mph100%29.87 "Hg10 mi
10:15 PM64 °FPassing clouds.No wind100%29.86 "Hg10 mi
9:15 PM64 °FLight rain. Overcast.No wind100%29.89 "Hg10 mi
8:35 PM66 °FThundershowers. More clouds than sun.9 mph100%29.87 "Hg5 mi
8:15 PM66 °FThunderstorms. Mostly cloudy.3 mph94%29.84 "Hg1 mi
7:55 PM70 °FStrong thunderstorms. Cloudy.10 mph94%29.86 "Hg4 mi
7:15 PM75 °FLight rain. Broken clouds.9 mph78%29.82 "Hg10 mi
6:55 PM79 °FBroken clouds.8 mph70%29.82 "Hg10 mi
6:35 PM81 °FScattered clouds.8 mph66%29.82 "Hg10 mi
6:15 PM81 °FSunny.3 mph66%29.81 "Hg10 mi
5:55 PM81 °FSunny.8 mph66%29.81 "Hg10 mi
5:15 PM82 °FSunny.8 mph62%29.84 "Hg10 mi
4:55 PM81 °FSunny.10 mph66%29.85 "Hg10 mi
4:35 PM81 °FSunny.10 mph66%29.85 "Hg10 mi
4:15 PM81 °FSunny.9 mph62%29.86 "Hg10 mi
3:55 PM79 °FSunny.10 mph65%29.86 "Hg10 mi
3:35 PM79 °FSunny.10 mph65%29.87 "Hg10 mi
3:15 PM79 °FSunny.8 mph70%29.87 "Hg10 mi
2:55 PM79 °FSunny.12 mph65%29.88 "Hg10 mi
2:35 PM79 °FSunny.16 mph70%29.88 "Hg10 mi
2:15 PM77 °FSunny.13 mph69%29.89 "Hg10 mi
Weather by CustomWeather, © 2016

See weather overviewHow to use our weather pages